Погода в Матлоке

Великобритания     53°08′21″N   1°33′26″W
темп.,
°C
ветер,
м/с
пор.,
м/с
влажн.,
%
обл.,
%
осадки,
мм/ч
давл.,
гПа
погр.,
м
30 ноября, вт
вт3000:00+7з81797100 0.1 1010772
03:00+8зсз81796100 0.0 1010904
06:00+9зсз91796100 0.2 1009765
09:00+9з81693100 0.0 1009755
12:00+9з81594100 0.0 1008720
15:00+9зюз51294100 0.0 1006503
18:00+8юз71395100 0.0 1002372
21:00+8юз81891100 0.1 996769
1 декабря, ср
ср100:00+9зюз8178698 0.8 9911289
03:00+6зсз142488100 0.8 9901496
06:00+7зсз111880100 3.3 9921208
09:00+6зсз10177763 0.0 9941359
12:00+6сз8138087 0.1 9951026
15:00+4с81487100 0.8 9991182
18:00+3с714705 0.9 1004955
21:00+2ссз613665 0.0 1007809
2 декабря, чт
чт200:000зсз4116977 0.0 1009422
03:00+2сз8146546 0.0 10071047
06:000сз613605 0.0 1009690
09:00+1ссз614655 0.0 1011808
12:00+3сз611575 0.0 1012938
15:00+2сз48618 0.0 1013432
18:000зсз256980 0.0 1014103
21:00+1зюз2467100 0.0 1012102
3 декабря, пт
пт300:000юз3877100 0.0 1011260
03:00+1юз31181100 0.0 1008349
06:00+1ююз3993100 0.0 1006331
09:00+2ююз41196100 0.0 1004346
12:00+4юз3992100 0.1 1001285
15:00+3ююз3897100 1.3 998265
18:00+5з51294100 1.9 998665
21:00+5зсз6148964 0.2 998675
4 декабря, сб
сб400:00+6з7158597 0.2 9991029
03:00+5зсз71479100 0.1 10001027
06:00+4зсз71473100 0.2 10011118
09:00+4з714715 0.0 1002973
12:00+5зсз914665 0.0 10021352
15:00+5зсз7136914 0.0 10031033
18:00+3зсз6147698 0.0 1004746
21:00+3зсз61481100 0.0 1005696